This is the latest recevied weather packets stored in our database for station/object N6GPM. If no packets are shown the sender has not sent any weather packets the latest 10 day(s).
| Time | Temp. | Humidity | Pressure | Rain* | Wind** | Luminosity | Snow |
|---|---|---|---|---|---|---|---|
| 1787696354 | 36.67° C | 27% | 1017.5 hPa | 0 mm | - | 770 W/m² | - |
| 1787696049 | 36.67° C | 28% | 1017.4 hPa | 0 mm | - | 752 W/m² | - |
| 1787695743 | 36.11° C | 28% | 1017.4 hPa | 0 mm | - | 692 W/m² | - |
| 1787695440 | 36.11° C | 26% | 1017.6 hPa | 0 mm | - | 620 W/m² | - |
| 1787695140 | 36.67° C | 27% | 1017.6 hPa | 0 mm | - | 689 W/m² | - |
| 1787694833 | 36.67° C | 25% | 1017.9 hPa | 0 mm | - | 800 W/m² | - |
| 1787694529 | 36.67° C | 25% | 1017.5 hPa | 0 mm | - | 807 W/m² | - |
| 1787694228 | 36.67° C | 24% | 1017.8 hPa | 0 mm | - | 812 W/m² | - |
| 1787693924 | 36.67° C | 25% | 1017.7 hPa | 0 mm | - | 839 W/m² | - |
| 1787693619 | 36.67° C | 24% | 1017.9 hPa | 0 mm | - | 808 W/m² | - |
| 1787693316 | 36.67° C | 24% | 1018.1 hPa | 0 mm | - | 875 W/m² | - |
| 1787693011 | 36.67° C | 24% | 1017.9 hPa | 0 mm | - | 884 W/m² | - |
| 1787692707 | 37.22° C | 23% | 1018 hPa | 0 mm | - | 930 W/m² | - |
| 1787692402 | 36.67° C | 24% | 1018.2 hPa | 0 mm | - | 943 W/m² | - |
| 1787692096 | 36.67° C | 25% | 1018.2 hPa | 0 mm | - | 950 W/m² | - |
| 1787691795 | 36.67° C | 26% | 1018 hPa | 0 mm | - | 948 W/m² | - |
| 1787691494 | 37.22° C | 26% | 1018.2 hPa | 0 mm | - | 879 W/m² | - |
| 1787691194 | 37.22° C | 25% | 1018.4 hPa | 0 mm | - | 962 W/m² | - |
| 1787690889 | 36.67° C | 25% | 1018.4 hPa | 0 mm | - | 977 W/m² | - |
| 1787690588 | 36.67° C | 23% | 1018.3 hPa | 0 mm | - | 972 W/m² | - |
| 1787690278 | 36.67° C | 21% | 1018.4 hPa | 0 mm | - | 995 W/m² | - |
| 1787689975 | 36.67° C | 22% | 1018.6 hPa | 0 mm | - | 974 W/m² | - |
| 1787689670 | 36.67° C | 23% | 1018.4 hPa | 0 mm | - | 1002 W/m² | - |
| 1787689366 | 36.67° C | 22% | 1018.5 hPa | 0 mm | - | 1000 W/m² | - |
| 1787689064 | 36.11° C | 23% | 1018.7 hPa | 0 mm | - | 1000 W/m² | - |
* Rain latest hour (hover to see other rain measurements)
** Current wind speed in m/s (hover to see current wind gust speed)